GW1675 Weather Reports


time (UTC)temp
F
wind
direction
speed
knots
gust
knots
rain 1hr
in
rain 24hr
in
rain mn
in
humidity
%
barometer
mb
20260904071559 74 135 1.7 4.3 0.00 0.00 0.00 67 1022.8
20260904070106 74 138 1.7 7.8 0.00 0.00 0.00 67 1022.8
20260904064605 75 0 1.7 7.8 0.00 0.00 0.00 67 1022.7
20260904063107 76 138 3.5 7.0 0.00 0.00 0.00 68 1022.5
20260904061557 76 0 0.0 1.7 0.00 0.00 0.00 67 1021.8
20260904060103 76 0 0.9 2.6 0.00 0.00 0.00 67 1021.5
20260904054633 76 0 0.9 3.5 0.00 0.00 0.00 67 1021.4
20260904053104 75 137 1.7 5.2 0.00 0.00 0.00 67 1020.9
20260904051600 74 137 2.6 6.1 0.00 0.00 0.00 67 1020.9
20260904050054 74 149 2.6 7.0 0.00 0.00 0.00 67 1020.9
20260904044559 73 159 1.7 3.5 0.00 0.00 0.00 67 1021.0
20260904043102 73 160 3.5 6.1 0.00 0.00 0.00 66 1021.0
20260904041607 74 165 4.3 7.8 0.00 0.00 0.00 67 1021.4
20260904034556 74 0 0.0 0.0 0.00 0.00 0.00 67 1021.4
20260904033102 75 0 0.0 0.0 0.00 0.00 0.00 67 1021.3
20260904031605 75 0 0.0 0.9 0.00 0.00 0.00 67 1021.0
20260904030057 76 177 0.9 3.5 0.00 0.00 0.00 67 1021.2
20260904024600 76 177 0.0 0.0 0.00 0.00 0.00 67 1020.8
20260904023107 76 0 0.0 4.3 0.00 0.00 0.00 67 1021.0
20260904021600 77 183 0.9 2.6 0.00 0.00 0.00 67 1021.0
20260904020101 78 183 0.0 4.3 0.00 0.00 0.00 67 1021.3
20260904014616 78 183 2.6 6.1 0.00 0.00 0.00 67 1021.5
20260904013118 78 0 0.9 7.8 0.00 0.00 0.00 67 1021.5
20260904011558 78 183 3.5 7.8 0.00 0.00 0.00 67 1021.8
20260904010112 78 183 0.9 3.5 0.00 0.00 0.00 67 1021.9
20260904004616 78 183 0.9 3.5 0.00 0.00 0.00 67 1022.2
20260904003123 75 0 0.0 0.0 0.00 0.00 0.00 66 1021.7
20260904001555 76 0 0.0 0.0 0.00 0.00 0.00 66 1021.6
20260904000054 76 0 0.0 0.0 0.00 0.00 0.00 66 1021.5
20260903234601 76 0 0.0 0.0 0.00 0.00 0.00 66 1021.6
20260903233103 76 0 0.0 0.0 0.00 0.00 0.00 66 1021.3
20260903231559 76 0 0.0 0.0 0.00 0.00 0.00 66 1021.4
20260903224554 77 0 0.0 0.0 0.00 0.00 0.00 66 1021.2
20260903223109 77 0 0.0 0.0 0.00 0.00 0.00 66 1021.1
20260903221556 77 0 0.0 0.0 0.00 0.00 0.00 66 1020.8
20260903220057 78 0 0.0 0.0 0.00 0.00 0.00 66 1020.9
20260903214553 79 0 0.0 0.0 0.00 0.00 0.00 66 1020.8
20260903213058 80 0 0.0 0.0 0.00 0.00 0.00 66 1020.8
20260903211608 80 0 0.0 1.7 0.00 0.00 0.00 66 1020.8
20260903210101 80 183 0.9 3.5 0.00 0.00 0.00 66 1020.8
20260903204603 80 184 0.9 3.5 0.00 0.00 0.00 66 1020.7
20260903203059 81 183 0.9 1.7 0.00 0.00 0.00 66 1020.6
20260903201602 80 183 0.9 0.9 0.00 0.00 0.00 66 1020.3
20260903200056 81 183 0.9 1.7 0.00 0.00 0.00 66 1020.3
20260903194559 81 0 0.0 1.7 0.00 0.00 0.00 66 1020.0
20260903193105 81 183 0.0 1.7 0.00 0.00 0.00 66 1020.0
20260903191554 82 183 0.0 2.6 0.00 0.00 0.00 66 1019.8
20260903190059 82 183 0.0 1.7 0.00 0.00 0.00 66 1019.9
20260903184602 82 183 1.7 3.5 0.00 0.00 0.00 66 1019.9
20260903183102 83 183 1.7 4.3 0.00 0.00 0.00 66 1020.0
20260903181556 84 183 2.6 5.2 0.00 0.00 0.00 66 1020.0
20260903180055 84 183 2.6 5.2 0.00 0.00 0.00 67 1020.0
20260903174611 84 183 3.5 6.1 0.00 0.00 0.00 67 1020.1
20260903173105 85 183 5.2 9.6 0.00 0.00 0.00 67 1020.0
20260903171601 85 183 4.3 9.6 0.00 0.00 0.00 67 1020.0
20260903170055 85 183 5.2 7.0 0.00 0.00 0.00 67 1019.8
20260903164608 86 184 6.1 9.6 0.00 0.00 0.00 67 1020.0
20260903163058 85 183 4.3 9.6 0.00 0.00 0.00 67 1020.0
20260903161558 86 183 7.0 13.0 0.00 0.00 0.00 67 1020.0
20260903160110 91 158 4.3 10.4 0.00 0.00 0.00 68 1020.1
20260903154601 92 155 3.5 6.1 0.00 0.00 0.00 68 1019.8
20260903153109 93 155 3.5 6.1 0.00 0.00 0.00 69 1019.9
20260903151555 93 155 3.5 7.0 0.00 0.00 0.00 69 1020.0
20260903150105 93 155 1.7 5.2 0.00 0.00 0.00 69 1019.9
20260903144601 94 155 3.5 6.1 0.00 0.00 0.00 69 1020.1
20260903143107 94 155 3.5 7.0 0.00 0.00 0.00 69 1020.2
20260903141555 94 155 2.6 6.1 0.00 0.00 0.00 69 1020.3
20260903140105 94 155 2.6 6.1 0.00 0.00 0.00 69 1020.5
20260903134610 93 161 2.6 5.2 0.00 0.00 0.00 69 1020.5
20260903133109 93 161 2.6 5.2 0.00 0.00 0.00 69 1020.6
20260903131556 93 161 2.6 7.0 0.00 0.00 0.00 69 1020.6
20260903130125 93 161 2.6 6.1 0.00 0.00 0.00 69 1020.6
20260903124611 91 162 3.5 6.1 0.00 0.00 0.00 69 1020.5
20260903123055 92 163 2.6 7.0 0.00 0.00 0.00 69 1020.5
20260903121554 90 165 3.5 6.1 0.00 0.00 0.00 69 1020.5
20260903120126 90 166 3.5 5.2 0.00 0.00 0.00 69 1020.7
20260903114558 88 167 4.3 7.8 0.00 0.00 0.00 69 1020.8
20260903113057 88 170 3.5 7.0 0.00 0.00 0.00 69 1020.8
20260903111556 89 171 3.5 6.1 0.00 0.00 0.00 69 1021.0
20260903110058 89 172 2.6 5.2 0.00 0.00 0.00 69 1021.0
20260903104603 87 174 2.6 7.0 0.00 0.00 0.00 68 1021.0
20260903103057 87 174 3.5 7.0 0.00 0.00 0.00 68 1021.0
20260903101554 88 176 2.6 6.1 0.00 0.00 0.00 68 1021.0
20260903100046 87 176 1.7 4.3 0.00 0.00 0.00 68 1020.7
20260903094607 88 175 2.6 4.3 0.00 0.00 0.00 68 1020.8
20260903093057 87 176 0.9 3.5 0.00 0.00 0.00 68 1020.8
20260903091551 85 176 0.9 1.7 0.00 0.00 0.00 68 1020.7
20260903090106 83 0 0.0 0.0 0.00 0.00 0.00 68 1020.6
20260903084556 81 0 0.0 0.0 0.00 0.00 0.00 67 1020.5
20260903083101 80 0 0.0 0.0 0.00 0.00 0.00 67 1020.5
20260903081615 78 0 0.0 0.0 0.00 0.00 0.00 67 1020.2
20260903080055 77 0 0.0 0.0 0.00 0.00 0.00 66 1020.4
20260903074605 77 0 0.0 0.0 0.00 0.00 0.00 66 1020.4
20260903073135 76 0 0.0 0.0 0.00 0.00 0.00 66 1020.3